Volver al catálogo

NOAA 16 DEB

ActivoSSO
NORAD 41361·DEBRIS·🇺🇸 United States

Lanzado Sep 21, 2000 desde Vandenberg Space Force Base

Loading…

Próximos Pases (próximas 24 horas)

TLE

ActualizadoSource: Space-Track

Época: Sep 13, 2026, 01:20 UTC

1 41361U 00055JE  26256.05607543  .00002013  00000-0  93025-3 0  9994
2 41361  98.7450 298.5898 0029173   3.2464 356.8898 14.21802664545027

Sigue NOAA 16 DEB en tiempo real con AllMySat

Download on the App Store